Location: �perlecques
(50.8057°N, 2.1521°E)
Time: 18:23:04
(UTC+00:00)

Vanguard 2 - All Passes

Search period start: 27 July 2021 00:00
Search period end: 06 August 2021 00:00
Orbit: 552 x 2937 km, 32.9° (Epoch: 27 July)

Date Brightness Start Highest point End Pass type
(mag) Time Alt. Az. Time Alt. Az. Time Alt. Az.
27 Jul - 07:07:58 10° SSW 07:12:17 19° SSE 07:17:59 10° SE daylight
27 Jul - 09:14:07 10° SW 09:20:07 23° S 09:28:27 10° SE daylight
27 Jul - 11:23:03 10° SW 11:28:46 16° SSW 11:35:48 10° S daylight
28 Jul - 07:25:09 10° SSW 07:29:34 19° SSE 07:35:28 10° SE daylight
28 Jul - 09:31:54 10° SW 09:37:32 20° S 09:45:08 10° SSE daylight
28 Jul - 11:42:45 10° SW 11:46:11 12° SSW 11:50:00 10° S daylight
29 Jul - 05:38:51 10° SSE 05:39:45 10° SSE 05:40:41 10° SE daylight
29 Jul - 07:42:31 10° SW 07:46:54 19° S 07:52:45 10° SE daylight
29 Jul - 09:49:58 10° SW 09:54:58 17° SSW 10:01:24 10° SSE daylight
30 Jul - 05:54:54 10° S 05:56:57 12° SSE 05:59:17 10° SE daylight
30 Jul - 08:00:04 10° SW 08:04:17 18° S 08:09:47 10° SE daylight
30 Jul - 10:08:36 10° SW 10:12:25 13° SSW 10:16:58 10° S daylight
31 Jul - 06:11:47 10° SSW 06:14:13 13° SSE 06:17:03 10° SE daylight
31 Jul - 08:17:53 10° SW 08:21:42 16° S 08:26:31 10° SSE daylight
01 Aug - 06:29:01 10° SSW 06:31:31 13° S 06:34:27 10° SE daylight
01 Aug - 08:36:06 10° SW 08:39:07 13° S 08:42:43 10° SSE daylight
02 Aug - 06:46:35 10° SSW 06:48:52 13° S 06:51:31 10° SSE daylight
02 Aug - 08:56:27 10° SSW 08:56:33 10° SSW 08:56:39 10° SSW daylight
03 Aug - 07:04:38 10° SSW 07:06:15 11° S 07:08:02 10° SSE daylight
